Location: Observatoire
(46.1952°N, 5.3391°E)
Time: 15:24:34
(UTC+02:00)

Oscar 11 - Visible Passes

Search period start: 13 April 2024 00:00
Search period end: 23 April 2024 00:00
Orbit: 605 x 614 km, 97.7° (Epoch: 12 April)

Date Brightness Start Highest point End Pass type
(mag) Time Alt. Az. Time Alt. Az. Time Alt. Az.
13 Apr 10.1 04:12:21 10° ENE 04:13:10 10° E 04:13:58 10° E visible
13 Apr 7.0 05:45:20 10° N 05:49:40 82° WNW 05:53:57 10° SSW visible
14 Apr 9.8 04:24:52 10° NE 04:27:20 15° E 04:29:46 10° SE visible
14 Apr 7.2 05:59:23 10° N 06:03:37 58° WNW 06:07:49 10° SSW visible
15 Apr 9.4 04:38:13 10° NE 04:41:27 20° E 04:44:39 10° SE visible
15 Apr 7.6 06:13:29 10° N 06:17:32 41° WNW 06:21:34 10° SW visible
16 Apr 8.9 04:51:49 10° NE 04:55:32 28° E 04:59:13 10° SSE visible
17 Apr 8.4 05:05:33 10° NNE 05:09:35 38° E 05:13:36 10° SSE visible
18 Apr 7.8 05:19:23 10° NNE 05:23:36 54° E 05:27:48 10° S visible
19 Apr 7.2 05:33:16 10° NNE 05:37:36 76° ESE 05:41:53 10° S visible
20 Apr 10.0 04:13:50 10° ENE 04:15:06 11° E 04:16:21 10° ESE visible
20 Apr 7.0 05:47:14 10° N 05:51:33 77° WNW 05:55:50 10° SSW visible
21 Apr 9.7 04:26:37 10° NE 04:29:13 16° E 04:31:49 10° SE visible
21 Apr 7.2 06:01:16 10° N 06:05:29 55° WNW 06:09:40 10° SSW visible
22 Apr 9.4 04:40:00 10° NE 04:43:19 21° E 04:46:36 10° SE visible
